Plentywood (PWD)
Plentywood, MT
Field Elevation: 2251
Lat: 48°47.32N  Long: 104°31.39W
CTAF/Unicom Freq: 122.8000
   
     For Weather-by-Phone, call 406-765-2149
Weather Advisories
9/30/2014 19:51 Z
Altimeter 29.57" Hg
Wind 120° @ 3 KT
Gusts --
Visibility 10 SM
Temperature 13° C (55° F)
Dewpoint 12° C (54° F)
Relative Humidity 90%
Density Altitude --
Condensation Altitude 3,100 feet
  Wind and Runways
Indicated Runway = 12
History
 
 
More Info
All DigiWx sites map
NOAA Forecast
 
Airport IQ 5010
(S59) Libby
(6S5) Ravalli County
 
about DigiWx
 
FAA Disclaimer: The data displayed is for advisory purposes only and is not to be used for flight planning or operations. For official data, please call 406-765-2149 to hear the current automated AWOS voice message.
  METAR PWD 301951Z AUTO 12003KT 10SM 13/12 A2957